Regional Weather Roundup
Issued by NWS

Home | Current Version | Previous Version | Text Only | Print | Product List | Glossary On
Versions: 1 2 3 4 5 6 7 8 9 10 11 12 13 14 15 16 17 18 19 20 21 22 23 24 25 26 27
000
ASUS45 KBOU 290507
RWRCO

WEATHER ROUNDUP FOR COLORADO
NATIONAL WEATHER SERVICE DENVER/BOULDER CO
1100 PM MDT SUN MAY 28 2017

NOTE: "FAIR" INDICATES FEW OR NO CLOUDS BELOW 12000 FEET WITH NO
SIGNIFICANT WEATHER AND/OR OBSTRUCTIONS TO VISIBILITY.

COZ001>005-013-030-031-290600-
...NORTHWEST COLORADO...

CITY           SKY/WX    TMP DP  RH WIND       PRES   REMARKS
CRAIG          FAIR      44  36  73 N3        30.27R
HAYDEN         FAIR      46  30  53 SE5       30.28S
MEEKER         FAIR      46  31  55 NE5       30.27R
RABBIT EARS PA FAIR      37  28  70 NW3       30.46F
STEAMBOAT SPGS FAIR      45  34  67 CALM      30.30S
WALDEN           N/A     41  30  65 SE7       30.37S
$$

COZ006>008-011-290600-
...WEST CENTRAL VALLEYS...

CITY           SKY/WX    TMP DP  RH WIND       PRES   REMARKS
GRAND JUNCTION FAIR      65  24  21 NE9       30.13S
MONTROSE       FAIR      54  24  31 SE8       30.22R
EAGLE          FAIR      50  30  46 E5        30.30R
RIFLE          FAIR      62  27  26 W6        30.21R
DELTA          FAIR      60  22  22 NE8       30.17R
NUCLA          FAIR      55  19  24 E10       30.25S
$$

COZ017>023-064>068-290600-
...SOUTHWEST COLORADO...

CITY           SKY/WX    TMP DP  RH WIND       PRES   REMARKS
DURANGO        FAIR      51  18  27 N5        30.22S
CORTEZ         FAIR      47  31  53 E9        30.20R
PAGOSA SPRINGS FAIR      44  14  29 CALM      30.30R
TELLURIDE      FAIR      46  19  33 S3        30.40R
WOLF CREEK PAS FAIR      36   9  32 E3        30.56F
$$

COZ009-010-012-014-032>034-037-058>063-290600-
...CENTRAL COLORADO...

CITY           SKY/WX    TMP DP  RH WIND       PRES   REMARKS
ASPEN          FAIR      44  29  55 SW10      30.32R
BUENA VISTA    FAIR      50  23  35 CALM      30.35R
COPPER MTN     FAIR      37  19  48 NW5       30.52F
BERTHOUD PASS  MOCLDY    30  19  64 S7        30.55S WCI  23
COTTONWOOD PAS MOCLDY    46  21  36 CALM      30.43S
GUNNISON       FAIR      47  23  38 CALM      30.32R
KREMMLING      FAIR      50  36  57 S5        30.33S
LEADVILLE      FAIR      33  22  63 NE5       30.41S WCI  29
MONARCH PASS   FAIR      34  23  64 NE17      30.61S WCI  23
SALIDA         FAIR      55  28  36 E5        30.40R
SUNLIGHT       FAIR      39  21  48 N3        30.50S
WILKERSON PASS FAIR      36  23  60 SE6       30.52S
$$

COZ069>075-290600-
...SAN LUIS VALLEY/SANGRE DE CRISTO MOUNTAINS...

CITY           SKY/WX    TMP DP  RH WIND       PRES   REMARKS
ALAMOSA        FAIR      51  31  46 NE5       30.28R
DEL NORTE      FAIR      49  24  36 SW13      30.31S
LA VETA PASS   MOCLDY    39  28  65 NE8       30.54S
SAGUACHE       FAIR      54  21  28 NW14      30.31R
$$

COZ035-036-038>040-290600-
...NORTHERN COLORADO FRONT RANGE...

CITY           SKY/WX    TMP DP  RH WIND       PRES   REMARKS
DENVER INTL AP MOCLDY    50  44  80 SE9       30.26F
DMNS CITY PARK   N/A     54  40  59 E9        30.28R
AURORA         PTCLDY    51  42  71 E7        30.29R
FRONT RANGE AP NOT AVBL
ERIE MUNI ARPT FAIR      51  45  78 S5        30.26S
BOULDER MUN AP FAIR      55  41  58 SW5       30.26F
CENTENNIAL     MOCLDY    53  42  66 E5        30.29R
BROOMFIELD     NOT AVBL
FORT COLLINS   CLOUDY    55  47  74 CALM      30.26R
LONGMONT       MOCLDY    53  46  79 CALM      30.27S
$$

COZ041-046-047-076>085-087-088-290600-
...PIKES PEAK/PALMER DIVIDE AND SOUTHERN FOOTHILLS...

CITY           SKY/WX    TMP DP  RH WIND       PRES   REMARKS
COLO. SPRINGS  FAIR      52  38  58 E6        30.28S
A. F. ACADEMY  FAIR      45  36  71 N10       30.29R
SCHRIEVER AFB  FAIR      53  37  55 W9        30.29R
CHEYENNE MTN   FAIR      53  29  39 CALM      30.25S
ELLICOTT       FAIR     N/A N/A N/A CALM      30.27S
FALCON         FAIR      49  34  55 NW5       30.32S
FORT CARSON    FAIR      51  35  53 CALM      30.26R
LIMON          FAIR      48  43  82 N8        30.25S
MONUMENT HILL  CLOUDY    46  37  71 E7        30.35R
CANON CITY     NOT AVBL
WALSENBURG     FAIR      52  45  76 CALM      30.27S
TRINIDAD       FAIR      49  36  61 NW3       30.25S
$$

COZ042>045-048>051-090-091-290600-
...NORTHEAST COLORADO...

CITY           SKY/WX    TMP DP  RH WIND       PRES   REMARKS
GREELEY ARPT   MOCLDY    55  45  68 CALM      30.25R
AKRON          FAIR      53  42  66 W6        30.20S
BURLINGTON     FAIR      54  45  71 NW10      30.19S
WRAY           FAIR      54  46  76 N7        30.17F
YUMA           FAIR      54  37  54 NW6       30.19S
STERLING       NOT AVBL
HOLYOKE        NOT AVBL
FORT MORGAN    CLOUDY    54  46  75 NW9       30.23R
$$

COZ086-089-092>099-290600-
...SOUTHEAST COLORADO...

CITY           SKY/WX    TMP DP  RH WIND       PRES   REMARKS
PUEBLO         FAIR      53  41  63 CALM      30.20R
LA JUNTA       FAIR      60  43  53 SW7       30.18R
LAMAR          FAIR      48  43  82 SW7       30.14R
SPRINGFIELD      N/A     47  42  83 SW3       30.19S
$$




USA.gov is the U.S. government's official web portal to all federal, state and local government web resources and services.